FLOCK 2K-32

Last updated on Wed Feb 14 2018 16:20:53 GMT+0000 (Coordinated Universal Time)

1 42870U 17042AX 18044.78753422 .00007114 00000-0 20698-3 0 9991 2 42870 96.9925 307.6348 0010457 187.4306 172.6785 15.35659983 32690

Satellite not in orbit

FLOCK 2K-32